This is the latest recevied weather packets stored in our database for station/object NO9B. If no packets are shown the sender has not sent any weather packets the latest 10 day(s).
| Time | Temp. | Humidity | Pressure | Rain* | Wind** | Luminosity | Snow |
|---|---|---|---|---|---|---|---|
| 1788015777 | 21.67° C | 80% | 1021.8 hPa | 0 mm | - | 64 W/m² | - |
| 1788015472 | 21.11° C | 81% | 1021.8 hPa | 0 mm | - | 69 W/m² | - |
| 1788015167 | 21.11° C | 82% | 1021.7 hPa | 0 mm | - | 70 W/m² | - |
| 1788014865 | 21.11° C | 81% | 1021.6 hPa | 0 mm | - | 64 W/m² | - |
| 1788014560 | 21.11° C | 82% | 1021.6 hPa | 0 mm | - | 56 W/m² | - |
| 1788014255 | 20.56° C | 82% | 1021.7 hPa | 0 mm | - | 48 W/m² | - |
| 1788013950 | 20.56° C | 81% | 1021.8 hPa | 0 mm | - | 38 W/m² | - |
| 1788013645 | 20.56° C | 82% | 1021.8 hPa | 0 mm | - | 32 W/m² | - |
| 1788013340 | 20.56° C | 82% | 1021.6 hPa | 0 mm | - | 31 W/m² | - |
| 1788013040 | 20.56° C | 82% | 1021.7 hPa | 0 mm | - | 31 W/m² | - |
| 1788012738 | 20.56° C | 81% | 1021.6 hPa | 0 mm | - | 31 W/m² | - |
| 1788012434 | 20.56° C | 81% | 1021.6 hPa | 0 mm | - | 33 W/m² | - |
| 1788012134 | 21.11° C | 82% | 1021.7 hPa | 0 mm | - | 35 W/m² | - |
| 1788011833 | 21.11° C | 80% | 1021.9 hPa | 0 mm | - | 39 W/m² | - |
| 1788011532 | 21.11° C | 81% | 1021.9 hPa | 0 mm | - | 45 W/m² | - |
| 1788011228 | 20.56° C | 81% | 1021.9 hPa | 0 mm | - | 51 W/m² | - |
| 1788010927 | 20.56° C | 80% | 1021.7 hPa | 0 mm | - | 52 W/m² | - |
| 1788010621 | 20.56° C | 82% | 1021.7 hPa | 0 mm | - | 49 W/m² | - |
| 1788010320 | 20.56° C | 82% | 1021.7 hPa | 0 mm | - | 47 W/m² | - |
| 1788010015 | 20.56° C | 81% | 1021.6 hPa | 0 mm | - | 47 W/m² | - |
| 1788009714 | 20.56° C | 81% | 1021.5 hPa | 0 mm | - | 45 W/m² | - |
| 1788009413 | 20.56° C | 81% | 1021.6 hPa | 0 mm | - | 44 W/m² | - |
| 1788009108 | 20° C | 82% | 1021.8 hPa | 0 mm | - | 41 W/m² | - |
| 1788008804 | 20° C | 83% | 1021.5 hPa | 0 mm | - | 36 W/m² | - |
| 1788008503 | 20° C | 83% | 1021.7 hPa | 0 mm | - | 33 W/m² | - |
* Rain latest hour (hover to see other rain measurements)
** Current wind speed in m/s (hover to see current wind gust speed)